Regional Weather Roundup
Issued by NWS

Home | Current Version | Previous Version | Text Only | Print | Product List | Glossary Off
Versions: 1 2 3 4 5 6 7 8 9 10 11 12 13 14 15 16 17 18 19 20 21 22 23 24 25 26 27 28 29 30 31 32 33 34 35 36 37 38 39 40 41 42 43 44 45 46 47 48 49 50

000
ASUS45 KPSR 020400
RWRAZ

PRELIMINARY ARIZONA REGIONAL HOURLY WEATHER ROUNDUP
NATIONAL WEATHER SERVICE PHOENIX AZ
900 PM MST WED OCT 01 2014

NOTE: FAIR INDICATES FEW OR NO CLOUDS BELOW 12,000 FEET WITH NO
SIGNIFICANT WEATHER AND/OR OBSTRUCTIONS TO VISIBILITY.

AZZ001>003-036-020500-
NORTHWEST ARIZONA

CITY           SKY/WX    TMP DP  RH WIND       PRES   REMARKS
KINGMAN        CLEAR     61  34  36 N9        30.04R
$$

AZZ004>008-015-016-018-020500-
NORTH CENTRAL ARIZONA

CITY           SKY/WX    TMP DP  RH WIND       PRES   REMARKS
GRAND CANYON   CLEAR     45  29  53 CALM      30.16R
PRESCOTT       CLEAR     61  36  39 W9        30.07R
FLAGSTAFF      CLEAR     49  34  56 NW5       30.16R
PAYSON         CLEAR     61  39  44 CALM      30.07R
PAGE           CLEAR     60  24  25 W9        30.08R
$$

AZZ009>014-017-020500-
NORTHEAST ARIZONA

CITY           SKY/WX    TMP DP  RH WIND       PRES   REMARKS
WINSLOW        NOT AVBL
SAINT JOHNS    CLOUDY    61  39  44 W6        30.05R
WINDOW ROCK    PTCLDY    49  36  61 CALM      30.09
SHOW LOW       CLEAR     54  36  50 S7        30.13R
$$

AZZ023-020500-
GREATER PHOENIX AREA

CITY           SKY/WX    TMP DP  RH WIND       PRES   REMARKS
PHOENIX        CLEAR     80  51  36 CALM      29.81R
LUKE AFB       CLEAR     77  50  38 SW6       29.81R
DEER VALLEY    CLEAR     77  44  30 CALM      29.84R
SCOTTSDALE     CLEAR     80  44  27 CALM      29.86R
MESA-GATEWAY   CLEAR     73  52  46 CALM      29.86R
CHANDLER       CLEAR     77  50  38 CALM      29.83R
$$

AZZ027-028-020500-
SOUTHWEST MARICOPA COUNTY AND PINAL COUNTY

CITY           SKY/WX    TMP DP  RH WIND       PRES   REMARKS
CASA GRANDE    CLEAR     72  43  35 CALM      29.85R
GILA BEND      CLEAR     75  52  43 SW5       29.76R
$$

AZZ503-504-507>509-020500-
SOUTHEAST ARIZONA

CITY           SKY/WX    TMP DP  RH WIND       PRES   REMARKS
TUCSON         CLEAR     77  34  21 W5        29.92R
DAVIS-MONTHAN  CLEAR     75  36  23 NW6       29.91R
NOGALES        CLEAR     60  47  61 E9        30.00R
SIERRA VISTA   CLEAR     64  43  45 W8        30.04R
SAFFORD        CLEAR     69  34  27 W6        29.91R
$$

AZZ020-021-025-026-031-020500-
SOUTHWEST ARIZONA

CITY           SKY/WX    TMP DP  RH WIND       PRES   REMARKS
YUMA           CLEAR     86  40  19 NW5       29.78R
$$

CAZ031-033-041-043-047-048-061-020500-
SOUTHERN CALIFORNIA

CITY           SKY/WX    TMP DP  RH WIND       PRES   REMARKS
DOWNTOWN L.A.  CLEAR     68  62  81 CALM      29.85R
L.A. AIRPORT   CLEAR     67  63  87 W6        29.85R
SAN DIEGO      PTCLDY    70  62  76 N3        29.86R
BURBANK        CLEAR     71  59  65 SE5       29.85R
ONTARIO        CLEAR     73  59  61 SW5       29.86R
RIVERSIDE      CLEAR     73  58  59 CALM      29.87R
PALM SPRINGS   CLEAR     89  35  14 NW7       29.84R
EL CENTRO NAS  CLEAR     80  39  23 W5        29.78R
IMPERIAL       CLEAR     78  44  29 CALM      29.77R
BLYTHE         CLEAR     82  47  29 NW7       29.80R
$$

NVZ020-UTZ003-020500-
SOUTHERN NEVADA-UTAH

CITY           SKY/WX    TMP DP  RH WIND       PRES   REMARKS
LAS VEGAS      NOT AVBL
SALT LAKE CITY PTCLDY    46  38  73 S7        30.20R
$$

NMZ009-TXZ055-020500-
NEW MEXICO-WEST TEXAS

CITY           SKY/WX    TMP DP  RH WIND       PRES   REMARKS
ALBUQUERQUE    MOCLDY    67  34  29 N13       29.99R
EL PASO        CLEAR     75  32  20 NW7       29.92R
$$


........................KEY........................
SKY/WX - SKY CONDITION/WEATHER
TMP    - TEMPERATURE IN FAHRENHEIT
DP     - DEW POINT IN FAHRENHEIT
RH     - RELATIVE HUMIDITY IN PERCENT
WIND   - DIRECTION AND SPEED IN MILES PER HOUR (MPH)
VRB    - VARIABLE WIND DIRECTION
PRES   - MEAN SEA LEVEL PRESSURE IN INCHES OF MERCURY
         F - FALLING PRESSURE   R - RISING PRESSURE
         S - STEADY PRESSURE
VSB    - VISIBILITY IN MILES
HX     - HEAT INDEX IN FAHRENHEIT
WCI    - WIND CHILL INDEX IN FAHRENHEIT
TC     - TEMPERATURE IN CELSIUS WHICH IS ALSO KNOWN AS
         TEMPERATURE IN CENTIGRADE
AFB    - AIR FORCE BASE
         LUKE AFB IS LUKE AIR FORCE BASE
         DAVIS-MONTHAN IS DAVIS-MONTHAN AIR FORCE BASE
NAS    - NAVAL AIR STATION
         EL CENTRO NAS IS EL CENTRO NAVAL AIR STATION
N/A    - NOT AVAILABLE



USA.gov is the U.S. government's official web portal to all federal, state and local government web resources and services.